Location: Pallagorio
(39.3000°N, 16.9000°E)
Time: 00:58:44
(UTC+00:00)

Cosmos 2278 Rocket - Pass Details

Date: 24 January 2021
Orbit: 840 x 846 km, 71.0° (Epoch: 08 March)

Event Time Altitude Azimuth Distance (km) Brightness Sun altitude
Rises 19:01:38 0° 232° (SW) 3,390 6.0 -34.3°
Reaches altitude 10° 19:04:24 10° 244° (WSW) 2,460 5.2 -34.9°
Maximum altitude 19:09:14 29° 303° (WNW) 1,513 3.9 -35.8°
Enters shadow 19:10:10 27° 320° (NW) 1,559 3.8 -36.0°
